Tracking 22130 objects as of 21-Jan-2021
HD Live streaming from Space Station
objects crossing your sky now

SL-8 R/B

Track SL-8 R/B now!
10-day predictions


NORAD ID: 12088
Int'l Code: 1980-097B
Perigee: 945.9 km
Apogee: 1,017.3 km
Inclination: 82.9 °
Period: 104.6 minutes
Semi major axis: 7352 km
RCS: 4.7296 m2 (large)
Launch date: December 5, 1980
Source: Commonwealth of Independent States (former USSR) (CIS)
Launch site: PLESETSK MISSILE AND SPACE COMPLEX (PKMTR)

Note: This is a ROCKET BODY
aabbcc
Your satellite tracking list
Your tracking list is empty




NASA's NSSDC Master Catalog

Two Line Element Set (TLE):
1 12088U 80097B   21020.93725140  .00000047  00000-0  32489-4 0  9990
2 12088  82.9414  85.9034 0048510 351.5223   8.5109 13.77020642 15806
Source of the keplerian elements: AFSPC